[[{"header":{"parameterUnit":"m.s-1","parameterCategory":2,"la1":30.2991,"la2":30.254,"lo1":-89.0895,"lo2":-89.0444,"dy":0.0017,"dx":0.0017,"nx":28,"ny":28,"refTime":"2023-07-27T09:00:00:Z","depth":"0","parameterNumber":2,"parameterNumberName":"U-component_of_CURRENTS"},"data":[0,0,0,0,0,0,0,0,0,0,0,0,0,0,0,0,0,0,0,0,0,0,0,0,0,0,0,0,0,0,0,0,0,0,0,0,0,0,0,0,0,0,0,0,0,0,0,0,0,0,0,0,0,0,0,0,0,0,-0.0223,-0.0223,0,-0.0211,-0.021,-0.021,-0.0246,-0.0247,-0.0248,-0.0249,-0.0085,-0.008,-0.0075,0,0,0,0,0,0,0,0,0,0,0,0,0,-0.024,-0.024,-0.0223,-0.0223,-0.0223,-0.0211,-0.021,-0.021,-0.0246,-0.0247,-0.0248,-0.0249,-0.0087,-0.0081,-0.0074,0,0,0,0,0,0,0,0,0,0,0,0,0,-0.0231,-0.024,-0.0223,-0.0239,-0.024,-0.0211,-0.021,-0.021,-0.0245,-0.0247,-0.0248,-0.025,-0.0089,-0.0081,-0.0073,0.0008,0,0,-0.0049,-0.0045,0,0,0,0,0,0,0,0,-0.0231,-0.023,-0.0237,-0.0238,-0.0239,-0.0231,-0.0156,-0.013,-0.0245,-0.0244,-0.0249,-0.0251,-0.0118,-0.0108,-0.0105,0.0016,0.0023,-0.0048,-0.0043,-0.004,-0.0038,0,0,0,0,0,0,0,-0.0232,-0.0231,-0.0219,-0.0236,-0.0238,-0.0233,-0.0234,-0.0152,-0.017,-0.0244,-0.0246,-0.0244,-0.0118,-0.0113,-0.0101,0.0025,-0.0048,-0.0041,-0.0036,-0.0033,0.01,0.0099,0,0,0,0,0,0,-0.0233,-0.0231,-0.0219,-0.0218,-0.0239,-0.0232,-0.0233,-0.0232,-0.0174,-0.0168,-0.0243,-0.0246,-0.0126,-0.011,-0.0095,-0.0066,-0.004,-0.0032,-0.0028,0.0101,0.01,0.0098,0,0,0,0,0,0,-0.0233,-0.0232,-0.022,-0.0224,-0.0222,-0.023,-0.0229,-0.0231,-0.0207,-0.0175,-0.0166,-0.0214,-0.0126,-0.0106,-0.0033,-0.0057,-0.0029,-0.0021,0.0103,0.0101,0.0099,0.0039,0,0,0,0,0,0,-0.0234,-0.0232,-0.0217,-0.0224,-0.0222,-0.0205,-0.0228,-0.023,-0.0204,-0.0207,-0.0146,-0.0135,-0.0126,-0.0045,-0.0025,-0.0045,-0.0015,0.0104,0.0102,0.0099,0.0043,0.0036,0.0029,0,0,0,0,0,-0.0235,-0.0223,-0.0217,-0.0214,-0.0206,-0.0205,-0.0203,-0.0214,-0.0201,-0.0195,-0.0161,-0.0136,-0.0049,-0.0038,-0.0014,-0.0033,0.0105,0.0102,0.01,0.0046,0.0037,0.0029,0,0,0,0,0,0,-0.0228,-0.0225,-0.0219,-0.0207,-0.0203,-0.0211,-0.0201,-0.0188,-0.0155,-0.0148,-0.0111,-0.0097,-0.0054,-0.0023,-0.0012,-0.001,0.0018,0.002,-0.0032,-0.0039,-0.0046,-0.0064,-0.0008,0,0,0,0,0,-0.0214,-0.0184,-0.0202,-0.0174,-0.0186,-0.0177,-0.0168,-0.0173,-0.0152,-0.0139,-0.0108,-0.0078,-0.0048,-0.0025,0.0007,0.0052,0.0041,0.0038,0.0031,0.0026,0.0022,-0.005,-0.0064,0.0089,0.0089,0.0089,0,0,-0.0196,-0.0186,-0.0168,-0.0166,-0.0166,-0.0189,-0.0177,-0.0165,-0.0174,-0.0117,-0.0108,-0.0074,-0.0038,-0.0029,-0.0009,-0.0003,-0.0018,0.0022,0.0017,0.0017,-0.0055,-0.007,-0.0083,0.0087,0.0087,0.0087,0,0,-0.0157,-0.0149,-0.0129,-0.0136,-0.0134,-0.0157,-0.0147,-0.0157,-0.016,-0.0126,-0.0118,-0.0104,-0.0031,-0.0058,-0.0046,-0.0056,-0.0043,-0.0044,-0.0093,-0.0164,-0.0177,-0.0189,-0.0198,-0.0211,-0.0059,-0.0059,-0.0059,0,-0.0138,-0.0122,-0.012,-0.0124,-0.0146,-0.0146,-0.0172,-0.0169,-0.0149,-0.0159,-0.0133,-0.0103,-0.0064,-0.0084,-0.0106,-0.0073,-0.0086,-0.0062,-0.0174,-0.0186,-0.0198,-0.0205,-0.0218,-0.0062,-0.0062,-0.0062,-0.0061,0,-0.012,-0.01,-0.0096,-0.0114,-0.0142,-0.0148,-0.019,-0.0205,-0.0201,-0.0202,-0.0201,-0.0167,-0.0163,-0.016,-0.012,-0.0189,-0.016,-0.0167,-0.0155,-0.0217,-0.0219,-0.0232,-0.0067,-0.0066,-0.0065,-0.0064,0,0,-0.0098,-0.0087,-0.008,-0.0093,-0.0145,-0.0169,-0.0219,-0.0274,-0.0298,-0.0282,-0.0315,-0.0284,-0.0264,-0.0251,-0.0225,-0.028,-0.0353,-0.0252,-0.0255,-0.0263,-0.0467,-0.0387,-0.0392,-0.0384,-0.0387,-0.039,-0.0428,0,-0.0088,-0.0087,-0.0102,-0.0128,-0.0162,-0.0216,-0.0267,-0.0312,-0.0333,-0.0363,-0.0355,-0.0346,-0.0298,-0.0288,-0.0338,-0.0332,-0.0392,-0.0339,-0.0404,-0.0405,-0.033,-0.0408,-0.03,-0.0322,-0.044,-0.0442,-0.0444,0,-0.0101,-0.0088,-0.0125,-0.0159,-0.0186,-0.0212,-0.0334,-0.0366,-0.0424,-0.0432,-0.045,-0.0424,-0.0451,-0.0419,-0.0476,-0.0439,-0.0462,-0.0474,-0.0477,-0.0392,-0.035,-0.0284,-0.034,-0.0347,-0.0463,-0.0461,-0.046,0,-0.0129,-0.012,-0.0154,-0.0167,-0.0219,-0.0256,-0.0295,-0.0381,-0.0414,-0.0466,-0.0479,-0.0511,-0.0501,-0.0555,-0.0542,-0.052,-0.0619,-0.0601,-0.056,-0.0552,-0.0468,-0.0447,-0.0541,-0.0703,-0.0703,-0.0703,-0.0702,0,-0.0152,-0.0151,-0.015,-0.0158,-0.0218,-0.0252,-0.032,-0.0376,-0.0423,-0.0455,-0.0485,-0.0509,-0.0541,-0.0579,-0.0589,-0.0591,-0.0663,-0.0578,-0.0577,-0.048,-0.0461,-0.0466,-0.0492,-0.0704,-0.0704,-0.0703,-0.0703,0,-0.0169,-0.0172,-0.0198,-0.0218,-0.0234,-0.0278,-0.0319,-0.0345,-0.0393,-0.0442,-0.045,-0.0509,-0.0549,-0.0585,-0.0662,-0.0626,-0.0649,-0.0666,-0.051,-0.0489,-0.0408,-0.044,-0.0562,-0.0551,-0.0603,-0.0602,-0.06,0,-0.0163,-0.0177,-0.0233,-0.0254,-0.0247,-0.0286,-0.0313,-0.0353,-0.0362,-0.0435,-0.0444,-0.0503,-0.0538,-0.0596,-0.0563,-0.0576,-0.0644,-0.0494,-0.0444,-0.0403,-0.0441,-0.0495,-0.0482,-0.0345,-0.0342,-0.0339,-0.0337,0,-0.0141,-0.018,-0.0202,-0.0246,-0.0272,-0.029,-0.0292,-0.0301,-0.034,-0.0372,-0.0405,-0.0443,-0.048,-0.0431,-0.044,-0.0444,-0.0461,-0.0437,-0.047,-0.0311,-0.0308,-0.0293,-0.0283,-0.0314,-0.0316,-0.0318,-0.0319,-0.032,-0.0137,-0.0146,-0.0189,-0.0229,-0.0263,-0.0245,-0.0231,-0.0209,-0.0223,-0.0217,-0.031,-0.0304,-0.0298,-0.0271,-0.0305,-0.0222,-0.031,-0.0184,-0.0242,-0.0313,-0.0269,-0.0171,-0.0156,-0.0158,-0.0159,-0.016,-0.0161,0,-0.0148,-0.0136,-0.0143,-0.0196,-0.0204,-0.0218,-0.0192,-0.0149,-0.0123,-0.0099,-0.0115,-0.0045,-0.0038,-0.0062,0.0013,-0.0004,-0.0046,-0.0053,-0.0117,-0.0123,-0.0087,-0.0037,0.0095,0.0095,0.0095,0.0095,0.0095,0.0095,-0.0174,-0.0165,-0.0138,-0.0126,-0.0136,-0.0103,-0.0071,-0.0011,0.004,0.0147,0.0228,0.0241,0.0222,0.0099,0.0044,0.0026,-0.0053,-0.0046,-0.0143,-0.0106,-0.0123,-0.0139,-0.0099,0.0018,0.0017,-0.0117,-0.0118,-0.0119]},{"header":{"parameterUnit":"m.s-1","parameterCategory":2,"la1":30.2991,"la2":30.254,"lo1":-89.0895,"lo2":-89.0444,"dy":0.0017,"dx":0.0017,"nx":28,"ny":28,"refTime":"2023-07-27T09:00:00:Z","depth":"0","parameterNumber":3,"parameterNumberName":"V-component_of_CURRENTS"},"data":[0,0,0,0,0,0,0,0,0,0,0,0,0,0,0,0,0,0,0,0,0,0,0,0,0,0,0,0,0,0,0,0,0,0,0,0,0,0,0,0,0,0,0,0,0,0,0,0,0,0,0,0,0,0,0,0,0,0,0.0638,0.0639,0,0.0742,0.0743,0.0745,0.0849,0.085,0.085,0.0851,0.1024,0.1028,0.1032,0,0,0,0,0,0,0,0,0,0,0,0,0,0.0548,0.055,0.0638,0.0639,0.0639,0.0741,0.0744,0.0746,0.0849,0.085,0.085,0.0851,0.1022,0.1027,0.1032,0,0,0,0,0,0,0,0,0,0,0,0,0,0.0622,0.055,0.0638,0.0696,0.0701,0.0741,0.0744,0.0747,0.0849,0.085,0.085,0.0851,0.1021,0.1027,0.1033,0.1056,0,0,0.1052,0.1054,0,0,0,0,0,0,0,0,0.0617,0.0626,0.0687,0.0692,0.0698,0.0775,0.0774,0.085,0.0849,0.0803,0.0851,0.0851,0.094,0.0953,0.0983,0.1064,0.1072,0.1052,0.1056,0.1059,0.106,0,0,0,0,0,0,0,0.0612,0.0622,0.0689,0.0687,0.0694,0.0721,0.0734,0.079,0.0875,0.0807,0.0812,0.0808,0.0945,0.0977,0.0988,0.1074,0.1052,0.1058,0.1061,0.1064,0.1121,0.1119,0,0,0,0,0,0,0.0578,0.0617,0.0686,0.0691,0.0648,0.0722,0.0736,0.0757,0.0873,0.0888,0.0807,0.0812,0.0966,0.0981,0.0995,0.0991,0.1059,0.1064,0.1068,0.1123,0.1121,0.1118,0,0,0,0,0,0,0.0577,0.0585,0.0681,0.0647,0.066,0.0721,0.0745,0.0759,0.0797,0.0871,0.0889,0.083,0.0967,0.0986,0.1039,0.1,0.1067,0.1073,0.1126,0.1123,0.1119,0.1009,0,0,0,0,0,0,0.0574,0.0584,0.0588,0.0646,0.0661,0.0689,0.0744,0.076,0.0787,0.0796,0.0896,0.0913,0.0969,0.1029,0.1045,0.101,0.1078,0.1129,0.1124,0.1121,0.1015,0.1002,0.0991,0,0,0,0,0,0.0571,0.057,0.0589,0.0596,0.0665,0.0686,0.0698,0.0749,0.0787,0.0791,0.0862,0.091,0.1012,0.1034,0.1053,0.1018,0.1131,0.1126,0.1121,0.1021,0.1005,0.0991,0,0,0,0,0,0,0.0533,0.0581,0.0603,0.0618,0.0639,0.07,0.0701,0.0745,0.0807,0.0833,0.0908,0.0929,0.0953,0.0999,0.1019,0.1016,0.1069,0.1067,0.0986,0.0972,0.096,0.0924,0.1083,0,0,0,0,0,0.0522,0.0546,0.0578,0.0592,0.059,0.0648,0.0664,0.0713,0.0768,0.0799,0.0847,0.0903,0.0945,0.0971,0.1014,0.1032,0.1041,0.1011,0.0998,0.0988,0.0968,0.0926,0.0908,0.1102,0.1102,0.1102,0,0,0.0524,0.054,0.0564,0.0585,0.0608,0.0604,0.0663,0.0694,0.07,0.0807,0.082,0.0872,0.094,0.0951,0.0963,0.0989,0.0941,0.0982,0.0973,0.0958,0.0919,0.09,0.0883,0.1099,0.1099,0.11,0,0,0.05,0.0534,0.0528,0.0543,0.0563,0.0586,0.0587,0.0635,0.0659,0.0692,0.0752,0.077,0.0845,0.0858,0.0886,0.083,0.0879,0.0845,0.0761,0.072,0.0703,0.0689,0.0693,0.0679,0.0837,0.0837,0.0837,0,0.0482,0.0492,0.0526,0.0509,0.0509,0.0566,0.055,0.0579,0.064,0.0636,0.068,0.0733,0.0788,0.0783,0.0762,0.08,0.0807,0.0817,0.0703,0.0689,0.0676,0.0683,0.067,0.0831,0.0832,0.0832,0.0833,0,0.0446,0.0459,0.0448,0.0445,0.0445,0.0454,0.0474,0.0471,0.0504,0.0532,0.0532,0.0599,0.0622,0.0632,0.0694,0.0623,0.0669,0.0695,0.074,0.065,0.0664,0.0652,0.0822,0.0825,0.0826,0.0828,0,0,0.0396,0.0416,0.0418,0.04,0.0423,0.0411,0.0393,0.0374,0.0354,0.0397,0.0363,0.041,0.0444,0.0472,0.0528,0.0495,0.0422,0.0554,0.0554,0.0557,0.0363,0.0436,0.0431,0.0432,0.0429,0.0426,0.0416,0,0.0347,0.031,0.0336,0.0298,0.0271,0.0303,0.0273,0.0278,0.0289,0.0266,0.0311,0.0321,0.0386,0.0406,0.0375,0.042,0.0383,0.0424,0.045,0.0451,0.0525,0.0416,0.0501,0.0502,0.0405,0.0403,0.0402,0,0.0289,0.0272,0.0232,0.0211,0.0197,0.0181,0.0126,0.0119,0.0113,0.0131,0.0136,0.019,0.0174,0.0239,0.0227,0.0257,0.0287,0.0314,0.0314,0.0408,0.05,0.0572,0.0485,0.0593,0.0384,0.0385,0.0387,0,0.0209,0.0192,0.0151,0.0155,0.0138,0.0105,0.0086,0.0072,0.0046,0.0045,0.0043,0.0048,0.0069,0.0073,0.0152,0.0181,0.0142,0.0192,0.0278,0.0287,0.0375,0.0396,0.039,0.0138,0.0138,0.0139,0.0139,0,0.0145,0.0115,0.0114,0.0094,0.0026,0.0042,-0.0024,-0.0039,-0.0054,-0.0079,-0.0026,-0.0037,0.0024,0.0036,0.0092,0.0154,0.0091,0.0234,0.0265,0.0343,0.036,0.0474,0.0511,0.0138,0.0138,0.0138,0.0138,0,0.0084,0.0092,0.0035,0.0006,-0.001,-0.0055,-0.0093,-0.0133,-0.0127,-0.0158,-0.0157,-0.0124,-0.0096,-0.0032,-0.0004,0.0094,0.0208,0.0168,0.0282,0.0326,0.053,0.0557,0.0539,0.0626,0.0259,0.026,0.0261,0,0.0046,0.002,-0.0035,-0.0066,-0.0076,-0.0125,-0.0158,-0.0173,-0.0206,-0.0204,-0.0229,-0.0203,-0.0189,-0.0104,0.0058,0.0157,0.0228,0.0325,0.038,0.0521,0.0573,0.0573,0.0648,0.0466,0.0469,0.0471,0.0473,0,-0.0029,-0.0038,-0.0084,-0.0136,-0.018,-0.0224,-0.0267,-0.0302,-0.0298,-0.0321,-0.0335,-0.0331,-0.02,-0.0032,0.0142,0.0222,0.0432,0.0377,0.0469,0.0674,0.0721,0.0829,0.0526,0.0493,0.0491,0.0489,0.0488,0.0487,-0.0088,-0.0125,-0.0171,-0.0222,-0.026,-0.0295,-0.0328,-0.0361,-0.0407,-0.0416,-0.0417,-0.0358,-0.003,0.0222,0.0276,0.0621,0.0557,0.075,0.0755,0.0729,0.0845,0.0603,0.064,0.0638,0.0638,0.0637,0.0636,0,-0.0162,-0.0187,-0.0247,-0.0302,-0.0342,-0.034,-0.0383,-0.0396,-0.0428,-0.0435,-0.0454,-0.0074,0.0185,0.0474,0.0936,0.1035,0.1043,0.108,0.1101,0.115,0.0899,0.0945,0.1114,0.1114,0.1114,0.1114,0.1114,0.1113,-0.0196,-0.0264,-0.0287,-0.0362,-0.0383,-0.0413,-0.0421,-0.043,-0.0427,-0.0314,-0.0132,-0.002,0.0577,0.0995,0.1331,0.1356,0.1446,0.1395,0.1429,0.1276,0.1246,0.1217,0.127,0.1503,0.1504,0.1721,0.1723,0.1724]}],[{"header":{"parameterUnit":"m.s-1","parameterCategory":2,"la1":30.2991,"la2":30.254,"lo1":-89.0895,"lo2":-89.0444,"dy":0.0017,"dx":0.0017,"nx":28,"ny":28,"refTime":"2023-07-27T09:00:00:Z","depth":"2","parameterNumber":2,"parameterNumberName":"U-component_of_CURRENTS"},"data":[0,0,0,0,0,0,0,0,0,0,0,0,0,0,0,0,0,0,0,0,0,0,0,0,0,0,0,0,0,0,0,0,0,0,0,0,0,0,0,0,0,0,0,0,0,0,0,0,0,0,0,0,0,0,0,0,0,0,-0.2329,-0.233,0,-0.2448,-0.2449,-0.245,-0.2299,-0.2294,-0.2288,-0.2283,-0.2136,-0.2137,-0.2139,0,0,0,0,0,0,0,0,0,0,0,0,0,-0.2211,-0.2213,-0.2329,-0.233,-0.2332,-0.2447,-0.2449,-0.2451,-0.23,-0.2294,-0.2287,-0.228,-0.2136,-0.2137,-0.2139,0,0,0,0,0,0,0,0,0,0,0,0,0,-0.229,-0.2213,-0.2328,-0.227,-0.2266,-0.2447,-0.2449,-0.2451,-0.2302,-0.2293,-0.2285,-0.2277,-0.2135,-0.2137,-0.2139,-0.2318,0,0,-0.2145,-0.2146,0,0,0,0,0,0,0,0,-0.2285,-0.2294,-0.2277,-0.2274,-0.227,-0.235,-0.2354,-0.2393,-0.2304,-0.2289,-0.2283,-0.2273,-0.2189,-0.2186,-0.2231,-0.2311,-0.2305,-0.2145,-0.2146,-0.2147,-0.2148,0,0,0,0,0,0,0,-0.2279,-0.2289,-0.2376,-0.228,-0.2275,-0.232,-0.232,-0.2363,-0.228,-0.2289,-0.2279,-0.2294,-0.2184,-0.223,-0.2226,-0.2302,-0.2145,-0.2147,-0.2148,-0.2149,-0.2293,-0.2295,0,0,0,0,0,0,-0.2261,-0.2284,-0.2372,-0.238,-0.2257,-0.2328,-0.2328,-0.2333,-0.2285,-0.2271,-0.2301,-0.2286,-0.2231,-0.2224,-0.222,-0.2218,-0.2147,-0.2149,-0.215,-0.229,-0.2293,-0.2296,0,0,0,0,0,0,-0.2258,-0.2268,-0.2368,-0.2334,-0.2349,-0.2337,-0.2346,-0.234,-0.2331,-0.2296,-0.2275,-0.229,-0.2224,-0.2217,-0.2219,-0.2217,-0.215,-0.2151,-0.2287,-0.2291,-0.2295,-0.2348,0,0,0,0,0,0,-0.2255,-0.2266,-0.2255,-0.2333,-0.235,-0.2445,-0.2353,-0.2348,-0.2357,-0.2337,-0.2283,-0.2264,-0.2217,-0.2217,-0.2221,-0.2219,-0.2153,-0.2284,-0.2289,-0.2294,-0.2343,-0.2354,-0.2363,0,0,0,0,0,-0.225,-0.2279,-0.2254,-0.2264,-0.2338,-0.2448,-0.2463,-0.2427,-0.2364,-0.2384,-0.2336,-0.2262,-0.225,-0.2223,-0.2227,-0.2224,-0.2281,-0.2287,-0.2293,-0.2339,-0.2351,-0.2362,0,0,0,0,0,0,-0.2207,-0.2269,-0.2242,-0.2278,-0.234,-0.242,-0.2441,-0.2435,-0.243,-0.2375,-0.2324,-0.2307,-0.2299,-0.2288,-0.226,-0.2285,-0.2246,-0.2253,-0.2279,-0.2291,-0.2301,-0.2285,-0.2154,0,0,0,0,0,-0.2203,-0.2232,-0.2304,-0.2326,-0.236,-0.2403,-0.2436,-0.2419,-0.2437,-0.2423,-0.2384,-0.2349,-0.2355,-0.2334,-0.2333,-0.2382,-0.2315,-0.2378,-0.2388,-0.2396,-0.239,-0.2308,-0.2307,-0.2316,-0.2316,-0.2316,0,0,-0.2193,-0.2228,-0.2241,-0.2319,-0.2359,-0.2438,-0.24,-0.2448,-0.2478,-0.2415,-0.2411,-0.2386,-0.2378,-0.2396,-0.2391,-0.2367,-0.2361,-0.2403,-0.241,-0.2399,-0.2313,-0.2312,-0.231,-0.232,-0.232,-0.2319,0,0,-0.2224,-0.2222,-0.2269,-0.2338,-0.24,-0.2441,-0.2452,-0.2513,-0.2489,-0.2539,-0.2471,-0.2447,-0.2477,-0.2447,-0.2448,-0.2533,-0.2418,-0.2526,-0.2556,-0.2477,-0.2473,-0.247,-0.2379,-0.2367,-0.2526,-0.2526,-0.2526,0,-0.218,-0.2266,-0.2303,-0.2383,-0.2427,-0.2442,-0.251,-0.2546,-0.258,-0.2557,-0.2521,-0.2516,-0.2503,-0.2509,-0.2532,-0.2546,-0.2476,-0.2503,-0.2482,-0.2478,-0.2473,-0.238,-0.2366,-0.253,-0.2529,-0.2529,-0.2528,0,-0.2279,-0.2337,-0.2382,-0.2468,-0.2524,-0.2592,-0.2643,-0.2645,-0.2617,-0.2626,-0.26,-0.2593,-0.2567,-0.2578,-0.2592,-0.2562,-0.2515,-0.25,-0.2437,-0.2473,-0.2376,-0.236,-0.2534,-0.2533,-0.2532,-0.2531,0,0,-0.2172,-0.2399,-0.2401,-0.2458,-0.2566,-0.2617,-0.2661,-0.2702,-0.2668,-0.2686,-0.2641,-0.2688,-0.2629,-0.2631,-0.2612,-0.2569,-0.2496,-0.253,-0.2525,-0.2412,-0.2295,-0.2179,-0.215,-0.2459,-0.2457,-0.2455,-0.2237,0,-0.2209,-0.2386,-0.2473,-0.2589,-0.268,-0.2703,-0.2732,-0.2745,-0.2727,-0.2684,-0.2662,-0.2634,-0.2669,-0.2627,-0.2599,-0.2517,-0.2457,-0.2555,-0.2301,-0.2293,-0.2161,-0.2129,-0.2004,-0.1791,-0.222,-0.2218,-0.2216,0,-0.2249,-0.2371,-0.2505,-0.2636,-0.266,-0.2695,-0.2675,-0.271,-0.2673,-0.2641,-0.2607,-0.2592,-0.2563,-0.2566,-0.2439,-0.2491,-0.2405,-0.2342,-0.233,-0.2188,-0.2147,-0.1828,-0.1745,-0.2188,-0.219,-0.2192,-0.2194,0,-0.215,-0.2367,-0.246,-0.252,-0.2667,-0.2648,-0.2674,-0.2654,-0.264,-0.2588,-0.2541,-0.2513,-0.2443,-0.2378,-0.2295,-0.2352,-0.2101,-0.2152,-0.196,-0.195,-0.1777,-0.1755,-0.2029,-0.2029,-0.203,-0.203,-0.2031,0,-0.2158,-0.2211,-0.2413,-0.2455,-0.2463,-0.258,-0.252,-0.2519,-0.251,-0.2462,-0.249,-0.2418,-0.2388,-0.2274,-0.2228,-0.2015,-0.2036,-0.1937,-0.1876,-0.1796,-0.1779,-0.2082,-0.2091,-0.2022,-0.2024,-0.2026,-0.2027,0,-0.199,-0.217,-0.2231,-0.2378,-0.2412,-0.2371,-0.2426,-0.2412,-0.2405,-0.2334,-0.2326,-0.2301,-0.2142,-0.2077,-0.1911,-0.1874,-0.1725,-0.1637,-0.154,-0.1473,-0.1654,-0.1669,-0.1426,-0.142,-0.1415,-0.1411,-0.1407,0,-0.1929,-0.1966,-0.2078,-0.2105,-0.2147,-0.2166,-0.2188,-0.2284,-0.2299,-0.2251,-0.2218,-0.2077,-0.1951,-0.1659,-0.153,-0.1353,-0.148,-0.1165,-0.1278,-0.1621,-0.1587,-0.1611,-0.1632,-0.1068,-0.1062,-0.1057,-0.1053,0,-0.1754,-0.175,-0.1802,-0.1871,-0.1914,-0.1969,-0.2035,-0.2054,-0.2153,-0.2105,-0.2018,-0.1917,-0.1622,-0.1367,-0.1128,-0.104,-0.1205,-0.1058,-0.1373,-0.1257,-0.1269,-0.1242,-0.1277,-0.1008,-0.1013,-0.1016,-0.1018,-0.102,-0.1532,-0.1517,-0.1609,-0.164,-0.1708,-0.1791,-0.179,-0.1889,-0.1895,-0.1805,-0.1797,-0.1558,-0.142,-0.0987,-0.0828,-0.0698,-0.0827,-0.0826,-0.0847,-0.0872,-0.0887,-0.0891,-0.056,-0.0562,-0.0563,-0.0565,-0.0566,0,-0.1392,-0.142,-0.1428,-0.1532,-0.1568,-0.1632,-0.1722,-0.1685,-0.1652,-0.1563,-0.1424,-0.1137,-0.0886,-0.0744,-0.0472,-0.0398,-0.0451,-0.0375,-0.0479,-0.052,-0.0558,-0.0565,-0.0148,-0.0147,-0.0146,-0.0145,0,0,-0.1331,-0.1359,-0.1405,-0.1438,-0.1456,-0.1466,-0.1477,-0.1357,-0.1284,-0.1105,-0.0969,-0.0881,-0.0805,-0.0547,-0.0412,-0.0253,-0.0409,-0.0214,-0.0546,-0.0717,-0.0755,-0.0798,-0.085,0,0,0,0,0]},{"header":{"parameterUnit":"m.s-1","parameterCategory":2,"la1":30.2991,"la2":30.254,"lo1":-89.0895,"lo2":-89.0444,"dy":0.0017,"dx":0.0017,"nx":28,"ny":28,"refTime":"2023-07-27T09:00:00:Z","depth":"2","parameterNumber":3,"parameterNumberName":"V-component_of_CURRENTS"},"data":[0,0,0,0,0,0,0,0,0,0,0,0,0,0,0,0,0,0,0,0,0,0,0,0,0,0,0,0,0,0,0,0,0,0,0,0,0,0,0,0,0,0,0,0,0,0,0,0,0,0,0,0,0,0,0,0,0,0,-0.0326,-0.0325,0,-0.0288,-0.0287,-0.0287,-0.0265,-0.0265,-0.0265,-0.0265,-0.0155,-0.0152,-0.0149,0,0,0,0,0,0,0,0,0,0,0,0,0,-0.0407,-0.0406,-0.0326,-0.0325,-0.0325,-0.0288,-0.0287,-0.0287,-0.0265,-0.0265,-0.0265,-0.0265,-0.0156,-0.0152,-0.0149,0,0,0,0,0,0,0,0,0,0,0,0,0,-0.0372,-0.0405,-0.0326,-0.0309,-0.0306,-0.0288,-0.0287,-0.0287,-0.0265,-0.0265,-0.0265,-0.0265,-0.0157,-0.0153,-0.0149,-0.0129,0,0,-0.0136,-0.0134,0,0,0,0,0,0,0,0,-0.0374,-0.0369,-0.0312,-0.031,-0.0307,-0.028,-0.0275,-0.023,-0.0266,-0.0283,-0.0265,-0.0264,-0.0189,-0.0182,-0.0179,-0.0124,-0.0119,-0.0136,-0.0133,-0.0131,-0.013,0,0,0,0,0,0,0,-0.0377,-0.0371,-0.0312,-0.0311,-0.0308,-0.0312,-0.0306,-0.0267,-0.0238,-0.0281,-0.0279,-0.0273,-0.0188,-0.0183,-0.0176,-0.0117,-0.0136,-0.0132,-0.0129,-0.0128,0.0096,0.0099,0,0,0,0,0,0,-0.0377,-0.0373,-0.0313,-0.0311,-0.0339,-0.031,-0.0304,-0.029,-0.024,-0.0232,-0.0273,-0.0272,-0.019,-0.0181,-0.0172,-0.0087,-0.0131,-0.0127,-0.0125,0.0093,0.0097,0.0101,0,0,0,0,0,0,-0.0379,-0.0372,-0.0315,-0.0341,-0.0333,-0.0309,-0.0293,-0.0289,-0.0284,-0.0234,-0.0225,-0.0271,-0.0189,-0.0177,-0.0114,-0.0084,-0.0126,-0.0122,0.0089,0.0094,0.0099,0.0046,0,0,0,0,0,0,-0.0381,-0.0372,-0.0364,-0.034,-0.0332,-0.0289,-0.0293,-0.0289,-0.028,-0.0278,-0.0229,-0.0219,-0.0188,-0.012,-0.011,-0.0079,-0.0119,0.0084,0.0091,0.0097,0.0044,0.0049,0.0054,0,0,0,0,0,-0.0384,-0.0373,-0.0364,-0.0357,-0.032,-0.0288,-0.0284,-0.0267,-0.028,-0.0265,-0.0227,-0.0221,-0.007,-0.0116,-0.0104,-0.0071,0.0081,0.0089,0.0097,0.0041,0.0048,0.0054,0,0,0,0,0,0,-0.04,-0.0369,-0.0359,-0.0337,-0.0308,-0.0283,-0.0279,-0.0271,-0.0235,-0.0239,-0.0199,-0.0184,-0.0109,-0.0071,-0.0122,0.0025,0.0016,0.0026,-0.0029,-0.0023,-0.0018,-0.0037,-0.0115,0,0,0,0,0,-0.04,-0.0386,-0.0351,-0.0332,-0.0325,-0.0306,-0.0295,-0.0282,-0.0249,-0.0236,-0.0198,-0.0138,-0.0067,-0.0035,0.003,0.0088,0.0108,0.0132,0.0137,0.014,0.0141,0.0206,0.0215,0.0126,0.0126,0.0126,0,0,-0.0403,-0.0383,-0.0375,-0.0335,-0.0323,-0.0299,-0.0299,-0.0283,-0.0249,-0.0227,-0.0176,-0.0127,-0.0044,0.0033,0.0072,0.0063,0.0176,0.015,0.0151,0.0151,0.0215,0.0223,0.0229,0.0132,0.0131,0.013,0,0,-0.0409,-0.0385,-0.0381,-0.0355,-0.0329,-0.0303,-0.0299,-0.0269,-0.0243,-0.019,-0.0148,-0.0081,0.0004,0.0077,0.0124,0.0202,0.0201,0.023,0.0228,0.0291,0.0297,0.0302,0.0311,0.0318,0.0229,0.0229,0.0229,0,-0.0421,-0.0399,-0.0372,-0.0359,-0.0341,-0.0305,-0.0293,-0.0249,-0.0196,-0.0168,-0.0169,-0.002,0.0034,0.0148,0.0174,0.0209,0.0218,0.018,0.0289,0.0296,0.0302,0.031,0.0318,0.0228,0.0228,0.0228,0.0228,0,-0.0418,-0.0403,-0.04,-0.0364,-0.0333,-0.0318,-0.0256,-0.0218,-0.0191,-0.0147,-0.0048,0.003,0.0113,0.0158,0.0178,0.0272,0.0253,0.0278,0.025,0.0306,0.0313,0.0322,0.0226,0.0226,0.0227,0.0227,0,0,-0.0456,-0.041,-0.0411,-0.04,-0.0341,-0.0317,-0.0251,-0.0181,-0.0136,-0.0069,-0.0003,0.0114,0.0131,0.019,0.024,0.0296,0.0334,0.0289,0.0293,0.0255,0.0421,0.0396,0.0403,0.0358,0.036,0.0362,0.0393,0,-0.0471,-0.0454,-0.0417,-0.0389,-0.0379,-0.0318,-0.0262,-0.0188,-0.0109,-0.0027,0.0067,0.0149,0.0157,0.0185,0.0245,0.0325,0.036,0.032,0.0411,0.0413,0.0349,0.0415,0.0409,0.0437,0.0402,0.0404,0.0405,0,-0.0494,-0.0473,-0.0462,-0.0413,-0.0405,-0.0378,-0.0286,-0.0228,-0.0093,-0.0049,0.0047,0.0134,0.0235,0.0234,0.0362,0.0324,0.0358,0.0411,0.0414,0.0417,0.0408,0.0389,0.0455,0.042,0.0419,0.0418,0.0417,0,-0.0552,-0.051,-0.0504,-0.0487,-0.0419,-0.0407,-0.0368,-0.025,-0.0187,-0.0062,0.0001,0.0128,0.0197,0.0277,0.0369,0.036,0.0499,0.051,0.052,0.0516,0.0547,0.0543,0.0594,0.0594,0.0594,0.0594,0.0594,0,-0.0598,-0.0596,-0.0539,-0.0539,-0.0528,-0.0468,-0.0429,-0.0369,-0.0248,-0.0154,-0.0032,0.0086,0.021,0.0324,0.0378,0.0466,0.0499,0.0527,0.0539,0.0528,0.0522,0.0546,0.054,0.0595,0.0595,0.0594,0.0594,0,-0.0683,-0.0648,-0.0638,-0.0578,-0.0567,-0.0567,-0.0496,-0.0443,-0.0344,-0.0205,-0.0168,0.0046,0.0173,0.029,0.0432,0.0478,0.0567,0.0582,0.0529,0.0535,0.0532,0.0524,0.0608,0.0607,0.0607,0.0607,0.0607,0,-0.0731,-0.0734,-0.0681,-0.0684,-0.0673,-0.0655,-0.0632,-0.0531,-0.0437,-0.0206,-0.0121,0.0049,0.0197,0.0371,0.0463,0.0539,0.0553,0.0582,0.0589,0.0538,0.0542,0.0534,0.0526,0.0597,0.0597,0.0597,0.0597,0,-0.0809,-0.0789,-0.0776,-0.0773,-0.0766,-0.0729,-0.0665,-0.06,-0.0434,-0.0323,-0.0115,0.002,0.0235,0.0369,0.0468,0.0519,0.0569,0.058,0.0585,0.0587,0.053,0.0532,0.0526,0.0595,0.0595,0.0596,0.0596,0.0596,-0.0858,-0.0881,-0.0857,-0.0861,-0.0842,-0.0785,-0.0747,-0.0642,-0.0533,-0.0322,-0.0164,0.004,0.0232,0.0386,0.0462,0.0532,0.0549,0.0587,0.0588,0.0589,0.0575,0.0521,0.0578,0.0578,0.0578,0.0578,0.0578,0,-0.0912,-0.0926,-0.094,-0.0921,-0.09,-0.0868,-0.0743,-0.0687,-0.0574,-0.0364,-0.0222,-0.001,0.0181,0.0363,0.0482,0.0554,0.0551,0.0558,0.0561,0.0563,0.0565,0.0549,0.0546,0.0545,0.0545,0.0545,0,0,-0.093,-0.0978,-0.0991,-0.0975,-0.0953,-0.0892,-0.0821,-0.0745,-0.0576,-0.042,-0.024,-0.0039,0.0252,0.0312,0.0414,0.0494,0.0495,0.0483,0.0507,0.0502,0.0502,0.0588,0.0566,0,0,0,0,0]}],[{"header":{"parameterUnit":"m.s-1","parameterCategory":2,"la1":30.2991,"la2":30.254,"lo1":-89.0895,"lo2":-89.0444,"dy":0.0017,"dx":0.0017,"nx":28,"ny":28,"refTime":"2023-07-27T09:00:00:Z","depth":"4","parameterNumber":2,"parameterNumberName":"U-component_of_CURRENTS"},"data":[0,0,0,0,0,0,0,0,0,0,0,0,0,0,0,0,0,0,0,0,0,0,0,0,0,0,0,0,0,0,0,0,0,0,0,0,0,0,0,0,0,0,0,0,0,0,0,0,0,0,0,0,0,0,0,0,0,0,-0.1044,-0.1045,0,-0.105,-0.105,-0.105,-0.1066,-0.1066,-0.1067,-0.1067,-0.1153,-0.1155,-0.1156,0,0,0,0,0,0,0,0,0,0,0,0,0,-0.0959,-0.0961,-0.1044,-0.1045,-0.1045,-0.105,-0.105,-0.105,-0.1066,-0.1066,-0.1067,-0.1068,-0.1152,-0.1154,-0.1157,0,0,0,0,0,0,0,0,0,0,0,0,0,-0.0981,-0.0961,-0.1044,-0.1056,-0.1057,-0.105,-0.105,-0.105,-0.1065,-0.1066,-0.1067,-0.1068,-0.1152,-0.1154,-0.1157,-0.1155,0,0,-0.1165,-0.1166,0,0,0,0,0,0,0,0,-0.098,-0.0984,-0.1054,-0.1055,-0.1056,-0.1061,-0.1051,-0.109,-0.1065,-0.1059,-0.1067,-0.1068,-0.1131,-0.1135,-0.1129,-0.1159,-0.1162,-0.1165,-0.1166,-0.1168,-0.1168,0,0,0,0,0,0,0,-0.0978,-0.0983,-0.1044,-0.1054,-0.1056,-0.103,-0.1035,-0.1058,-0.1089,-0.106,-0.1062,-0.1066,-0.1132,-0.1126,-0.1131,-0.1164,-0.1165,-0.1167,-0.1169,-0.117,-0.1268,-0.1269,0,0,0,0,0,0,-0.0987,-0.0982,-0.1044,-0.1044,-0.1023,-0.1032,-0.1037,-0.1056,-0.1087,-0.1093,-0.1066,-0.1067,-0.1121,-0.1128,-0.1135,-0.1237,-0.1168,-0.117,-0.1171,-0.1267,-0.1268,-0.1269,0,0,0,0,0,0,-0.0986,-0.0993,-0.1043,-0.1014,-0.102,-0.1033,-0.1054,-0.1056,-0.1076,-0.1091,-0.1098,-0.1088,-0.1122,-0.1131,-0.1178,-0.1237,-0.1171,-0.1173,-0.1266,-0.1267,-0.1269,-0.1377,0,0,0,0,0,0,-0.0984,-0.0993,-0.1015,-0.1016,-0.1022,-0.1053,-0.1053,-0.1055,-0.1077,-0.108,-0.1112,-0.1119,-0.1124,-0.1174,-0.118,-0.1239,-0.1176,-0.1264,-0.1266,-0.1268,-0.1372,-0.1382,-0.139,0,0,0,0,0,-0.0981,-0.1002,-0.1016,-0.1024,-0.1051,-0.1054,-0.1055,-0.1064,-0.1078,-0.1086,-0.1114,-0.112,-0.1191,-0.1177,-0.1184,-0.1245,-0.1263,-0.1266,-0.1268,-0.1368,-0.138,-0.139,0,0,0,0,0,0,-0.0966,-0.1006,-0.1022,-0.1053,-0.1062,-0.1058,-0.1071,-0.1078,-0.1104,-0.1119,-0.1134,-0.1143,-0.1207,-0.1199,-0.1183,-0.1274,-0.1228,-0.1232,-0.1301,-0.1313,-0.1322,-0.1289,-0.1178,0,0,0,0,0,-0.0977,-0.1013,-0.1031,-0.1056,-0.1068,-0.1076,-0.1083,-0.1089,-0.1108,-0.112,-0.1141,-0.1171,-0.1216,-0.1243,-0.1264,-0.1314,-0.1274,-0.1354,-0.1364,-0.1372,-0.1347,-0.1373,-0.1383,-0.1277,-0.1277,-0.1277,0,0,-0.0975,-0.1005,-0.1023,-0.1057,-0.1069,-0.1076,-0.1082,-0.1101,-0.111,-0.1127,-0.116,-0.1206,-0.1234,-0.1294,-0.1322,-0.1302,-0.1373,-0.1375,-0.1382,-0.1352,-0.1376,-0.1387,-0.1396,-0.1279,-0.1278,-0.1278,0,0,-0.0979,-0.1022,-0.1049,-0.1065,-0.1094,-0.1092,-0.1105,-0.1119,-0.1136,-0.1166,-0.1201,-0.1264,-0.1309,-0.1349,-0.1375,-0.1439,-0.142,-0.1472,-0.1503,-0.1531,-0.154,-0.1547,-0.1477,-0.1478,-0.148,-0.1481,-0.1481,0,-0.0978,-0.1018,-0.105,-0.1074,-0.1089,-0.1103,-0.1116,-0.1127,-0.1152,-0.1177,-0.1184,-0.1279,-0.1322,-0.1407,-0.1452,-0.1462,-0.1449,-0.147,-0.1545,-0.1551,-0.1557,-0.1484,-0.1483,-0.1486,-0.1485,-0.1485,-0.1484,0,-0.0996,-0.103,-0.1046,-0.1086,-0.1097,-0.1116,-0.1133,-0.1152,-0.1176,-0.1195,-0.1274,-0.1326,-0.1383,-0.1434,-0.1476,-0.1565,-0.153,-0.1556,-0.1521,-0.1575,-0.1493,-0.149,-0.1494,-0.1492,-0.149,-0.1489,0,0,-0.0986,-0.1049,-0.1058,-0.1074,-0.1113,-0.1115,-0.1141,-0.1169,-0.119,-0.1236,-0.1272,-0.1389,-0.1434,-0.1464,-0.1536,-0.1582,-0.1633,-0.1612,-0.1611,-0.1545,-0.1641,-0.1531,-0.1516,-0.1708,-0.1709,-0.171,-0.1555,0,-0.0992,-0.1035,-0.1067,-0.1086,-0.1099,-0.113,-0.1147,-0.1177,-0.1206,-0.1241,-0.1317,-0.1381,-0.1441,-0.1505,-0.1564,-0.1628,-0.1636,-0.1666,-0.1592,-0.1586,-0.1489,-0.1514,-0.1713,-0.1553,-0.1552,-0.1551,-0.1551,0,-0.0999,-0.1024,-0.1059,-0.109,-0.1102,-0.1114,-0.1146,-0.1168,-0.1225,-0.1256,-0.1327,-0.138,-0.1474,-0.1512,-0.1579,-0.1613,-0.1628,-0.1647,-0.1642,-0.1494,-0.1473,-0.1493,-0.1545,-0.1545,-0.1546,-0.1546,-0.1546,0,-0.0961,-0.1014,-0.1043,-0.1059,-0.1095,-0.1118,-0.1138,-0.1183,-0.1201,-0.1276,-0.1298,-0.1388,-0.1428,-0.1489,-0.1546,-0.1586,-0.1574,-0.1616,-0.149,-0.1478,-0.1575,-0.1569,-0.1623,-0.1623,-0.1623,-0.1624,-0.1624,0,-0.0943,-0.0962,-0.1033,-0.1039,-0.1057,-0.1103,-0.1126,-0.1155,-0.1204,-0.1222,-0.132,-0.1333,-0.1443,-0.1459,-0.1512,-0.1468,-0.1531,-0.1465,-0.1445,-0.1616,-0.1617,-0.1569,-0.1565,-0.1618,-0.1619,-0.162,-0.1621,0,-0.0889,-0.0942,-0.0968,-0.1025,-0.1037,-0.1054,-0.1096,-0.1103,-0.1173,-0.1192,-0.1222,-0.1286,-0.1307,-0.1353,-0.1402,-0.1383,-0.138,-0.1344,-0.1443,-0.1435,-0.1257,-0.126,-0.1162,-0.1157,-0.1153,-0.115,-0.1147,0,-0.0851,-0.0872,-0.0946,-0.0946,-0.0972,-0.1004,-0.1008,-0.1073,-0.1083,-0.115,-0.1146,-0.1178,-0.1218,-0.1153,-0.1229,-0.1217,-0.124,-0.1179,-0.1292,-0.1226,-0.1217,-0.1226,-0.1235,-0.114,-0.1139,-0.1138,-0.1137,0,-0.0775,-0.084,-0.0865,-0.0881,-0.089,-0.0896,-0.0922,-0.0919,-0.0992,-0.1054,-0.1055,-0.1066,-0.1048,-0.1075,-0.1052,-0.1074,-0.1202,-0.1137,-0.1147,-0.1253,-0.1198,-0.1195,-0.1209,-0.1123,-0.1125,-0.1126,-0.1127,0,-0.073,-0.0743,-0.0801,-0.0802,-0.0802,-0.0788,-0.0818,-0.0831,-0.0854,-0.0945,-0.0927,-0.0984,-0.1026,-0.0993,-0.0995,-0.0981,-0.0992,-0.0982,-0.1,-0.1016,-0.1051,-0.0966,-0.078,0,0,0,0,0,-0.0675,-0.0693,-0.0699,-0.0702,-0.07,-0.0705,-0.0747,-0.0789,-0.0859,-0.0832,-0.0886,-0.0885,-0.0877,-0.0899,-0.0859,-0.0919,-0.0987,-0.0866,-0.0983,-0.1044,-0.106,-0.1121,0,0,0,0,0,0,-0.0639,-0.0667,-0.0685,-0.0616,-0.0589,-0.0584,-0.061,-0.0665,-0.0672,-0.0752,-0.0761,-0.0812,-0.0825,-0.0884,-0.0833,-0.0837,-0.0889,-0.0896,-0.0893,-0.1035,-0.1049,-0.1063,-0.1131,0,0,0,0,0]},{"header":{"parameterUnit":"m.s-1","parameterCategory":2,"la1":30.2991,"la2":30.254,"lo1":-89.0895,"lo2":-89.0444,"dy":0.0017,"dx":0.0017,"nx":28,"ny":28,"refTime":"2023-07-27T09:00:00:Z","depth":"4","parameterNumber":3,"parameterNumberName":"V-component_of_CURRENTS"},"data":[0,0,0,0,0,0,0,0,0,0,0,0,0,0,0,0,0,0,0,0,0,0,0,0,0,0,0,0,0,0,0,0,0,0,0,0,0,0,0,0,0,0,0,0,0,0,0,0,0,0,0,0,0,0,0,0,0,0,-0.0303,-0.0303,0,-0.0282,-0.0282,-0.0282,-0.0282,-0.0282,-0.0281,-0.0281,-0.0269,-0.0269,-0.0268,0,0,0,0,0,0,0,0,0,0,0,0,0,-0.0315,-0.0316,-0.0303,-0.0303,-0.0302,-0.0282,-0.0282,-0.0282,-0.0282,-0.0282,-0.0281,-0.0281,-0.0269,-0.0269,-0.0268,0,0,0,0,0,0,0,0,0,0,0,0,0,-0.0308,-0.0316,-0.0303,-0.0296,-0.0295,-0.0282,-0.0282,-0.0282,-0.0282,-0.0282,-0.0281,-0.0281,-0.0269,-0.0269,-0.0268,-0.0271,0,0,-0.0267,-0.0267,0,0,0,0,0,0,0,0,-0.0308,-0.0308,-0.0298,-0.0297,-0.0295,-0.028,-0.0281,-0.0277,-0.0282,-0.0292,-0.0281,-0.0281,-0.0271,-0.027,-0.0273,-0.027,-0.027,-0.0267,-0.0267,-0.0267,-0.0267,0,0,0,0,0,0,0,-0.0309,-0.0309,-0.0299,-0.0297,-0.0295,-0.0284,-0.0283,-0.0281,-0.0286,-0.0291,-0.0289,-0.028,-0.0271,-0.0273,-0.0273,-0.0269,-0.0267,-0.0267,-0.0267,-0.0267,-0.0318,-0.0319,0,0,0,0,0,0,-0.0304,-0.0309,-0.03,-0.0298,-0.0296,-0.0283,-0.0283,-0.0289,-0.0286,-0.0284,-0.028,-0.028,-0.0274,-0.0273,-0.0272,-0.0321,-0.0267,-0.0267,-0.0267,-0.0316,-0.0318,-0.032,0,0,0,0,0,0,-0.0305,-0.0304,-0.0301,-0.0299,-0.0297,-0.0283,-0.029,-0.0289,-0.0293,-0.0277,-0.0276,-0.0286,-0.0274,-0.0273,-0.0289,-0.0318,-0.0267,-0.0266,-0.0314,-0.0317,-0.0319,-0.0388,0,0,0,0,0,0,-0.0306,-0.0305,-0.031,-0.0299,-0.0297,-0.0303,-0.029,-0.0288,-0.0285,-0.0285,-0.0282,-0.028,-0.0273,-0.0289,-0.0288,-0.0317,-0.0266,-0.0312,-0.0315,-0.0318,-0.0384,-0.0392,-0.04,0,0,0,0,0,-0.0307,-0.031,-0.0311,-0.031,-0.0304,-0.0303,-0.0303,-0.0294,-0.0286,-0.0297,-0.03,-0.028,-0.0307,-0.029,-0.0289,-0.0318,-0.0311,-0.0314,-0.0318,-0.038,-0.0391,-0.04,0,0,0,0,0,0,-0.032,-0.031,-0.0311,-0.0313,-0.0313,-0.0302,-0.0301,-0.0297,-0.0307,-0.0308,-0.0296,-0.0296,-0.0325,-0.031,-0.0292,-0.0342,-0.0307,-0.031,-0.0355,-0.0365,-0.0373,-0.0378,-0.0266,0,0,0,0,0,-0.0325,-0.0326,-0.0319,-0.0324,-0.0322,-0.0315,-0.0312,-0.0312,-0.0313,-0.0317,-0.0318,-0.0322,-0.0337,-0.0341,-0.035,-0.037,-0.0315,-0.039,-0.0398,-0.0405,-0.0409,-0.0353,-0.0356,-0.0331,-0.0331,-0.0331,0,0,-0.0336,-0.0324,-0.033,-0.0326,-0.0324,-0.0346,-0.0315,-0.0317,-0.0347,-0.0313,-0.0354,-0.035,-0.035,-0.0383,-0.0394,-0.0374,-0.038,-0.0409,-0.0415,-0.0415,-0.0357,-0.0359,-0.0361,-0.0333,-0.0333,-0.0332,0,0,-0.0353,-0.0346,-0.0356,-0.0363,-0.0357,-0.0361,-0.0364,-0.0366,-0.0376,-0.0408,-0.0399,-0.041,-0.043,-0.0438,-0.0443,-0.0497,-0.0426,-0.0503,-0.0545,-0.0491,-0.0492,-0.0492,-0.0405,-0.0397,-0.0504,-0.0505,-0.0505,0,-0.0365,-0.0381,-0.036,-0.0376,-0.0391,-0.0374,-0.0408,-0.0419,-0.0431,-0.0447,-0.0433,-0.0462,-0.0459,-0.0494,-0.0521,-0.0514,-0.0457,-0.0508,-0.0499,-0.0498,-0.0497,-0.0408,-0.0398,-0.0508,-0.0508,-0.0508,-0.0507,0,-0.0394,-0.0417,-0.0421,-0.0447,-0.0462,-0.0483,-0.0498,-0.0518,-0.0524,-0.0537,-0.0566,-0.0553,-0.0566,-0.0573,-0.0568,-0.0575,-0.0526,-0.0514,-0.0469,-0.0503,-0.0407,-0.0396,-0.0514,-0.0512,-0.0511,-0.051,0,0,-0.0404,-0.0438,-0.0442,-0.0474,-0.0504,-0.052,-0.0571,-0.061,-0.0633,-0.0645,-0.0669,-0.0697,-0.0671,-0.0675,-0.0654,-0.0615,-0.0557,-0.0569,-0.0564,-0.0473,-0.0404,-0.0369,-0.0352,-0.0538,-0.0537,-0.0536,-0.0332,0,-0.0438,-0.0483,-0.0497,-0.0569,-0.0603,-0.0619,-0.0665,-0.0699,-0.0713,-0.073,-0.0715,-0.0732,-0.0715,-0.0709,-0.0673,-0.0598,-0.0533,-0.0611,-0.0394,-0.0387,-0.0344,-0.0341,-0.0533,-0.0322,-0.032,-0.0318,-0.0316,0,-0.0469,-0.0495,-0.0564,-0.0631,-0.0647,-0.0693,-0.075,-0.0785,-0.0809,-0.0813,-0.0817,-0.0798,-0.0775,-0.0733,-0.0601,-0.0649,-0.0534,-0.0455,-0.0444,-0.0382,-0.0332,-0.0287,-0.0294,-0.0296,-0.0297,-0.0299,-0.03,0,-0.0482,-0.0549,-0.0605,-0.0631,-0.0699,-0.074,-0.0775,-0.0816,-0.0836,-0.0857,-0.0856,-0.083,-0.0787,-0.0681,-0.0536,-0.0564,-0.0343,-0.0356,-0.0201,-0.0195,-0.0255,-0.0257,-0.0226,-0.0226,-0.0227,-0.0227,-0.0228,0,-0.0516,-0.0565,-0.0617,-0.0651,-0.0721,-0.0759,-0.0819,-0.085,-0.0867,-0.088,-0.0889,-0.0854,-0.0769,-0.0646,-0.0523,-0.0318,-0.0322,-0.0198,-0.0146,-0.0286,-0.0295,-0.0244,-0.0248,-0.0219,-0.0221,-0.0223,-0.0224,0,-0.0536,-0.0568,-0.0638,-0.0709,-0.0733,-0.0783,-0.0843,-0.0867,-0.0888,-0.0892,-0.0898,-0.085,-0.0692,-0.0562,-0.0353,-0.028,-0.0103,-0.0011,-0.0135,-0.0094,0.001,-0.0001,0.0153,0.0155,0.0158,0.016,0.0161,0,-0.0551,-0.0584,-0.0668,-0.0704,-0.0745,-0.0808,-0.084,-0.0877,-0.0886,-0.0869,-0.0852,-0.0731,-0.0674,-0.0337,-0.0223,0.0028,0.0059,0.0133,0.002,0.001,0.0046,0.0031,0.0017,0.0165,0.0166,0.0166,0.0167,0,-0.0575,-0.0604,-0.0656,-0.0723,-0.0774,-0.0824,-0.0865,-0.0864,-0.0879,-0.0892,-0.0779,-0.0663,-0.0463,-0.0284,-0.0076,0.0091,0.0046,0.0158,0.0152,0.0047,0.0028,0.0057,0.0041,0.0175,0.0174,0.0173,0.0173,0,-0.0583,-0.0624,-0.0678,-0.074,-0.0797,-0.0825,-0.085,-0.0826,-0.0823,-0.079,-0.073,-0.0569,-0.0479,-0.024,-0.0052,0.0107,0.0117,0.0111,0.0108,0.01,-0.0006,-0.0044,0.0138,0,0,0,0,0,-0.0584,-0.0624,-0.0684,-0.0752,-0.0803,-0.0833,-0.0856,-0.0864,-0.0856,-0.0762,-0.0746,-0.0557,-0.031,-0.0208,-0.0031,-0.0032,0.0125,0.017,0.0112,0.0221,0.0211,0.0094,0,0,0,0,0,0,-0.0585,-0.0642,-0.068,-0.0737,-0.0778,-0.0827,-0.0841,-0.0839,-0.0771,-0.0743,-0.0583,-0.0543,-0.0272,-0.0388,-0.0031,0.001,-0.0015,0.0285,0.0287,0.0226,0.0218,0.021,0.0086,0,0,0,0,0]}]]